[[[{"header":{"parameterUnit":"kt","parameterCategory":2,"dx":1,"dy":1,"la1":30.253999710083008,"la2":30.299108505249023,"lo1":-89.0895004272461,"lo2":-89.04439544677734,"nx":28,"ny":28,"refTime":"2022-10-09T21:00:00:Z","depth":0,"parameterNumber":1,"parameterNumberName":"U-component_of_WINDS"},"data":[-1.6861,-1.6814,-1.6792,-1.6727,-1.6696,-1.6647,-1.6623,-1.6588,-1.6555,-1.6493,-1.6453,-1.6424,-1.638,-1.6326,-1.628,-1.6268,-1.625,-1.625,-1.6236,-1.6258,-1.626,-1.6261,-1.6272,-1.6247,-1.6247,-1.6216,-1.6216,-1.6215,-1.6881,-1.6851,-1.681,-1.6756,-1.672,-1.6708,-1.6663,-1.6633,-1.6589,-1.6547,-1.6507,-1.6449,-1.6401,-1.6355,-1.6304,-1.628,-1.627,-1.6267,-1.6268,-1.6262,-1.6285,-1.6296,-1.6276,-1.6276,-1.6276,-1.6276,-1.6276,-1.6276,-1.6912,-1.6884,-1.6839,-1.6794,-1.676,-1.6723,-1.6692,-1.6658,-1.6617,-1.6562,-1.6542,-1.6491,-1.6443,-1.6369,-1.6338,-1.6296,-1.6294,-1.6284,-1.6281,-1.6279,-1.628,-1.6329,-1.6286,-1.6286,-1.6286,-1.6286,-1.6286,0,-1.6928,-1.6911,-1.687,-1.6823,-1.6789,-1.6749,-1.6709,-1.6689,-1.6644,-1.6611,-1.6561,-1.6529,-1.6463,-1.6413,-1.6359,-1.6328,-1.6309,-1.6304,-1.6296,-1.6306,-1.6322,-1.6313,-1.6352,-1.6305,-1.6305,-1.6305,-1.6305,-1.6305,-1.6957,-1.6927,-1.6868,-1.6842,-1.6814,-1.6773,-1.6743,-1.6706,-1.6675,-1.6619,-1.6595,-1.6544,-1.6501,-1.6424,-1.6382,-1.6332,-1.6322,-1.6307,-1.6314,-1.6325,-1.6321,-1.6323,-1.632,-1.6306,-1.6306,-1.6306,-1.6306,0,-1.6976,-1.6939,-1.6885,-1.6828,-1.6813,-1.6783,-1.6734,-1.6703,-1.6672,-1.6626,-1.6613,-1.6564,-1.6515,-1.6474,-1.6409,-1.639,-1.6337,-1.6329,-1.6354,-1.635,-1.6332,-1.6335,-1.6282,-1.6273,-1.6298,-1.6298,-1.6298,0,-1.6986,-1.6947,-1.6895,-1.6865,-1.6821,-1.6784,-1.6741,-1.671,-1.6668,-1.6631,-1.6604,-1.657,-1.6524,-1.6483,-1.6454,-1.6404,-1.6391,-1.6373,-1.6365,-1.6375,-1.6377,-1.6357,-1.6358,-1.635,-1.635,-1.6351,-1.6351,0,-1.7019,-1.6945,-1.6897,-1.6873,-1.6808,-1.6786,-1.6757,-1.671,-1.6681,-1.6636,-1.6616,-1.6566,-1.6538,-1.6499,-1.6462,-1.6469,-1.64,-1.6401,-1.6381,-1.6382,-1.6367,-1.6368,-1.6332,-1.6351,-1.6351,-1.6351,-1.6351,0,-1.7021,-1.6978,-1.6914,-1.6859,-1.684,-1.6808,-1.6757,-1.672,-1.6672,-1.6652,-1.6615,-1.6592,-1.6545,-1.6549,-1.6484,-1.6503,-1.6477,-1.6455,-1.6452,-1.6445,-1.6451,-1.6435,-1.6406,-1.6401,-1.644,-1.644,-1.6441,0,-1.7069,-1.6993,-1.6962,-1.69,-1.686,-1.6833,-1.6795,-1.6754,-1.6724,-1.6684,-1.665,-1.6604,-1.6599,-1.6579,-1.6552,-1.6515,-1.649,-1.6517,-1.6458,-1.6456,-1.6472,-1.6444,-1.645,-1.6417,-1.645,-1.6449,-1.6448,0,-1.7101,-1.7023,-1.7014,-1.6986,-1.6926,-1.6891,-1.6848,-1.6795,-1.6771,-1.6726,-1.6689,-1.6623,-1.6616,-1.6583,-1.6558,-1.6532,-1.6505,-1.6528,-1.6526,-1.6525,-1.6451,-1.6456,-1.6451,-1.6494,-1.6493,-1.6492,-1.6455,0,-1.7113,-1.707,-1.7045,-1.6984,-1.6951,-1.691,-1.6868,-1.6839,-1.6819,-1.6788,-1.6732,-1.6685,-1.6629,-1.6612,-1.6592,-1.6545,-1.6546,-1.6539,-1.6539,-1.6521,-1.6508,-1.6503,-1.6563,-1.6562,-1.6562,-1.6562,0,0,-1.7167,-1.7105,-1.707,-1.7028,-1.6998,-1.697,-1.693,-1.6897,-1.6831,-1.681,-1.681,-1.6711,-1.6672,-1.6608,-1.66,-1.6577,-1.6564,-1.6571,-1.653,-1.6527,-1.6524,-1.651,-1.6505,-1.6562,-1.6562,-1.6561,-1.6561,0,-1.7163,-1.7127,-1.7089,-1.7054,-1.7,-1.697,-1.6961,-1.6902,-1.688,-1.6825,-1.6801,-1.6762,-1.6682,-1.6645,-1.6616,-1.6579,-1.6562,-1.6565,-1.656,-1.653,-1.6527,-1.6524,-1.651,-1.6506,-1.6561,-1.6561,-1.6561,0,-1.7187,-1.7145,-1.7122,-1.7053,-1.7017,-1.6975,-1.6966,-1.6922,-1.6891,-1.6859,-1.6805,-1.6773,-1.6719,-1.6664,-1.6637,-1.6636,-1.6562,-1.6577,-1.6577,-1.6573,-1.6542,-1.6538,-1.6535,-1.6577,-1.6577,-1.6578,0,0,-1.7188,-1.7148,-1.7091,-1.7049,-1.7028,-1.6982,-1.6955,-1.6932,-1.6885,-1.6867,-1.6825,-1.6779,-1.6733,-1.6703,-1.6657,-1.6602,-1.6587,-1.6581,-1.658,-1.658,-1.6575,-1.6544,-1.6541,-1.6579,-1.6579,-1.6579,0,0,-1.7188,-1.7121,-1.7109,-1.7055,-1.7013,-1.6952,-1.6927,-1.6911,-1.6865,-1.6865,-1.6822,-1.6808,-1.6756,-1.6725,-1.6742,-1.6656,-1.6657,-1.6652,-1.6678,-1.6676,-1.6675,-1.6684,-1.6724,0,0,0,0,0,-1.7162,-1.7129,-1.712,-1.7104,-1.7016,-1.6958,-1.6946,-1.6911,-1.6913,-1.6894,-1.6857,-1.684,-1.6725,-1.674,-1.6725,-1.6705,-1.659,-1.6588,-1.6586,-1.6607,-1.6606,-1.6605,0,0,0,0,0,0,-1.7156,-1.7138,-1.712,-1.7059,-1.7039,-1.6959,-1.6954,-1.6944,-1.6914,-1.6912,-1.6848,-1.6838,-1.6806,-1.6745,-1.6732,-1.6714,-1.6729,-1.659,-1.6588,-1.6586,-1.6607,-1.6606,-1.6605,0,0,0,0,0,-1.7151,-1.7136,-1.7004,-1.7059,-1.7041,-1.6987,-1.6955,-1.6947,-1.6923,-1.6864,-1.6854,-1.6899,-1.6807,-1.6793,-1.6737,-1.6721,-1.6738,-1.6733,-1.6588,-1.6587,-1.6586,-1.6606,0,0,0,0,0,0,-1.7147,-1.7127,-1.6999,-1.6993,-1.7069,-1.6991,-1.6978,-1.6949,-1.6876,-1.6866,-1.6913,-1.6912,-1.6807,-1.6796,-1.6785,-1.6726,-1.6745,-1.674,-1.6737,-1.6587,-1.6586,-1.6585,0,0,0,0,0,0,-1.7135,-1.7121,-1.6996,-1.701,-1.7005,-1.6994,-1.6983,-1.693,-1.6875,-1.6929,-1.6926,-1.6914,-1.6822,-1.6798,-1.679,-1.6708,-1.6751,-1.6746,-1.6743,-1.6741,-1.6586,-1.6586,0,0,0,0,0,0,-1.7128,-1.7117,-1.7012,-1.7008,-1.7003,-1.6925,-1.6947,-1.6857,-1.689,-1.6932,-1.6892,-1.6893,-1.6824,-1.6815,-1.6793,-1.6715,-1.671,-1.6751,-1.6747,-1.6745,-1.6744,0,0,0,0,0,0,0,-1.7123,-1.7208,-1.704,-1.7006,-1.7002,-1.693,-1.6928,-1.6927,-1.689,-1.6891,-1.6892,-1.6892,-1.6778,-1.6773,-1.6767,-1.672,0,0,-1.6751,-1.6749,0,0,0,0,0,0,0,0,-1.7212,-1.7209,-1.7039,-1.7038,-1.7037,-1.693,-1.6929,-1.6927,-1.689,-1.6891,-1.6892,-1.6892,-1.6776,-1.6772,-1.6768,0,0,0,0,0,0,0,0,0,0,0,0,0,0,0,-1.7039,-1.7038,0,-1.693,-1.6929,-1.6927,-1.6891,-1.6891,-1.6892,-1.6892,-1.6775,-1.6772,-1.6768,0,0,0,0,0,0,0,0,0,0,0,0,0,0,0,0,0,0,0,0,0,0,0,0,0,0,0,0,0,0,0,0,0,0,0,0,0,0,0,0,0,0,0,0,0,0,0,0,0,0,0,0,0,0,0,0,0,0,0,0,0,0,0,0,0,0,0,0,0]}],[{"header":{"parameterUnit":"kt","parameterCategory":2,"dx":1,"dy":1,"la1":30.253999710083008,"la2":30.299108505249023,"lo1":-89.0895004272461,"lo2":-89.04439544677734,"nx":28,"ny":28,"refTime":"2022-10-09T21:00:00:Z","depth":0,"parameterNumber":2,"parameterNumberName":"V-component_of_WINDS"},"data":[-3.9116,-3.9181,-3.9257,-3.9366,-3.9453,-3.9541,-3.9597,-3.9678,-3.9761,-3.9875,-3.9955,-4.0037,-4.015,-4.0264,-4.0354,-4.0389,-4.0424,-4.0393,-4.044,-4.0507,-4.0522,-4.0535,-4.0527,-4.0398,-4.0398,-4.0361,-4.0361,-4.0361,-3.9166,-3.9252,-3.933,-3.9458,-3.9528,-3.9604,-3.9712,-3.9765,-3.9841,-3.9943,-4.0024,-4.0131,-4.0224,-4.035,-4.0453,-4.0487,-4.0529,-4.051,-4.0511,-4.0528,-4.0602,-4.0591,-4.0475,-4.0475,-4.0475,-4.0475,-4.0475,-4.0475,-3.9277,-3.9312,-3.9433,-3.952,-3.9605,-3.9689,-3.9736,-3.9837,-3.9915,-4.003,-4.0104,-4.0192,-4.0308,-4.0468,-4.054,-4.0612,-4.0647,-4.0649,-4.0651,-4.0651,-4.0642,-4.0693,-4.0632,-4.0632,-4.0633,-4.0633,-4.0634,0,-3.9383,-3.9445,-3.9524,-3.9627,-3.9694,-3.978,-3.9872,-3.9903,-4.0056,-4.0113,-4.0204,-4.0268,-4.0396,-4.049,-4.0602,-4.0677,-4.0763,-4.0777,-4.0781,-4.0749,-4.0707,-4.0735,-4.0856,-4.0779,-4.078,-4.0781,-4.0782,-4.0783,-3.9505,-3.9534,-3.9697,-3.9743,-3.9812,-3.9882,-3.9941,-4.0074,-4.013,-4.0262,-4.0286,-4.038,-4.0464,-4.0594,-4.071,-4.0805,-4.0848,-4.0812,-4.0863,-4.0832,-4.0854,-4.0852,-4.0858,-4.0799,-4.0797,-4.0796,-4.0794,0,-3.9568,-3.969,-3.976,-3.9917,-3.9958,-3.9982,-4.0117,-4.0156,-4.0249,-4.0316,-4.0339,-4.0484,-4.0569,-4.0693,-4.0813,-4.0875,-4.0922,-4.0959,-4.0885,-4.0901,-4.0883,-4.0885,-4.0798,-4.0796,-4.0925,-4.0924,-4.0923,0,-3.9722,-3.9754,-3.9936,-3.9969,-4.0011,-4.0144,-4.0182,-4.0265,-4.0366,-4.042,-4.0536,-4.0584,-4.0733,-4.08,-4.0891,-4.095,-4.0971,-4.1024,-4.1048,-4.1016,-4.1009,-4.1049,-4.1057,-4.1096,-4.1096,-4.1097,-4.1097,0,-3.981,-3.9942,-3.9997,-4.0048,-4.0217,-4.024,-4.0311,-4.0425,-4.0479,-4.0569,-4.0607,-4.0701,-4.0754,-4.0826,-4.0943,-4.0973,-4.1016,-4.1083,-4.1071,-4.1068,-4.1075,-4.1073,-4.0964,-4.1097,-4.1097,-4.1097,-4.1098,0,-3.9954,-4.0042,-4.0101,-4.0247,-4.0276,-4.031,-4.0415,-4.0472,-4.0583,-4.0643,-4.0715,-4.0807,-4.0865,-4.0923,-4.1007,-4.1015,-4.1061,-4.1116,-4.1117,-4.1132,-4.1195,-4.1121,-4.1001,-4.0995,-4.1144,-4.1144,-4.1145,0,-4.0024,-4.0115,-4.023,-4.0282,-4.0342,-4.0471,-4.0512,-4.0605,-4.0689,-4.0752,-4.0845,-4.0914,-4.0983,-4.1022,-4.1047,-4.1145,-4.1134,-4.115,-4.1244,-4.1245,-4.1215,-4.1105,-4.1058,-4.1013,-4.1151,-4.115,-4.115,0,-4.0094,-4.0299,-4.0299,-4.0364,-4.0507,-4.0556,-4.0601,-4.07,-4.0737,-4.0826,-4.0871,-4.0968,-4.1027,-4.1088,-4.1172,-4.1191,-4.1146,-4.125,-4.1255,-4.1231,-4.1162,-4.1119,-4.1111,-4.1198,-4.1197,-4.1197,-4.1155,0,-4.0293,-4.0352,-4.0358,-4.049,-4.0547,-4.0583,-4.0714,-4.0757,-4.0834,-4.0921,-4.0984,-4.109,-4.1188,-4.1209,-4.1281,-4.1285,-4.1305,-4.1364,-4.1431,-4.1356,-4.1346,-4.1341,-4.1436,-4.1439,-4.1441,-4.1443,0,0,-4.0332,-4.042,-4.0542,-4.0591,-4.0647,-4.0779,-4.0807,-4.0876,-4.1011,-4.1047,-4.1086,-4.1238,-4.1321,-4.1385,-4.1372,-4.1409,-4.1423,-4.1443,-4.1389,-4.1383,-4.1377,-4.1364,-4.1357,-4.1447,-4.1448,-4.1449,-4.1449,0,-4.0433,-4.0514,-4.054,-4.0618,-4.0737,-4.0827,-4.0833,-4.0973,-4.103,-4.1091,-4.1199,-4.1251,-4.1366,-4.1443,-4.1497,-4.1438,-4.1517,-4.1457,-4.1385,-4.1408,-4.1398,-4.139,-4.1374,-4.1366,-4.1455,-4.1455,-4.1455,0,-4.0529,-4.0632,-4.0657,-4.0787,-4.0865,-4.0921,-4.1024,-4.1076,-4.1119,-4.1258,-4.1316,-4.1391,-4.1502,-4.1543,-4.1565,-4.1601,-4.1595,-4.1617,-4.1606,-4.1612,-4.1641,-4.1629,-4.1618,-4.1757,-4.1758,-4.1758,0,0,-4.0597,-4.0652,-4.0803,-4.0818,-4.086,-4.0994,-4.1035,-4.1116,-4.1212,-4.125,-4.1349,-4.144,-4.151,-4.1552,-4.1623,-4.1647,-4.1683,-4.1649,-4.1635,-4.1623,-4.1622,-4.1647,-4.1635,-4.176,-4.176,-4.176,0,0,-4.063,-4.0808,-4.0867,-4.0901,-4.099,-4.114,-4.1144,-4.1221,-4.1298,-4.1308,-4.1445,-4.1474,-4.1514,-4.1583,-4.1595,-4.165,-4.1714,-4.1713,-4.1604,-4.1588,-4.1574,-4.1558,-4.1715,0,0,0,0,0,-4.08,-4.0786,-4.0839,-4.0863,-4.1026,-4.111,-4.1132,-4.1245,-4.129,-4.1292,-4.1387,-4.1467,-4.1619,-4.1633,-4.1656,-4.1641,-4.1787,-4.1782,-4.1778,-4.1643,-4.1625,-4.1609,0,0,0,0,0,0,-4.0811,-4.0841,-4.084,-4.0986,-4.1024,-4.1112,-4.1213,-4.1244,-4.1293,-4.1307,-4.1446,-4.1471,-4.1568,-4.163,-4.1648,-4.1632,-4.1709,-4.1785,-4.1781,-4.1777,-4.1637,-4.1622,-4.1609,0,0,0,0,0,-4.082,-4.0844,-4.1074,-4.0988,-4.102,-4.1168,-4.1214,-4.1241,-4.1281,-4.1427,-4.1454,-4.1362,-4.1565,-4.1588,-4.1641,-4.162,-4.1697,-4.1704,-4.1782,-4.1779,-4.1776,-4.1629,0,0,0,0,0,0,-4.0827,-4.0869,-4.1084,-4.1098,-4.1001,-4.1165,-4.1195,-4.1238,-4.1399,-4.1426,-4.1349,-4.1359,-4.1562,-4.1581,-4.1598,-4.161,-4.1688,-4.1694,-4.1698,-4.178,-4.1777,-4.1775,0,0,0,0,0,0,-4.0857,-4.088,-4.1091,-4.1101,-4.1118,-4.1162,-4.1189,-4.1248,-4.1399,-4.1313,-4.1326,-4.1352,-4.1536,-4.1575,-4.1589,-4.1678,-4.168,-4.1686,-4.1691,-4.1694,-4.1778,-4.1776,0,0,0,0,0,0,-4.0869,-4.0889,-4.1099,-4.1111,-4.1126,-4.1294,-4.1217,-4.1377,-4.1409,-4.1304,-4.1415,-4.1417,-4.1528,-4.1545,-4.1583,-4.1665,-4.1675,-4.168,-4.1685,-4.1688,-4.169,0,0,0,0,0,0,0,-4.0878,-4.0717,-4.0999,-4.1119,-4.1132,-4.123,-4.1233,-4.1237,-4.1409,-4.1412,-4.1414,-4.1416,-4.1644,-4.1651,-4.1658,-4.1654,0,0,-4.168,-4.1683,0,0,0,0,0,0,0,0,-4.0711,-4.0716,-4.1,-4.1003,-4.1006,-4.123,-4.1233,-4.1237,-4.141,-4.1412,-4.1414,-4.1415,-4.1646,-4.1652,-4.1657,0,0,0,0,0,0,0,0,0,0,0,0,0,0,0,-4.1,-4.1002,0,-4.1231,-4.1233,-4.1236,-4.141,-4.1412,-4.1413,-4.1415,-4.1648,-4.1652,-4.1657,0,0,0,0,0,0,0,0,0,0,0,0,0,0,0,0,0,0,0,0,0,0,0,0,0,0,0,0,0,0,0,0,0,0,0,0,0,0,0,0,0,0,0,0,0,0,0,0,0,0,0,0,0,0,0,0,0,0,0,0,0,0,0,0,0,0,0,0,0]}]]]